Home > Time Zones > World Clock > Weather > Iran > Yazd > Past weeks

Flag for Iran Weather past 2 weeks in Yazd, Iran

Now
64 °F

Scattered clouds.


Feels Like: 64 °F
Forecast: 44 / 61 °F
Wind: 7 mph from North

Location: Yazd Airport

Current Time: Jan 31, 2015 at 10:04:52 AM

Latest Report: Jan 31, 2015 at 9:30 AM


Visibility: N/A

Pressure: 30.07 "Hg

Humidity: 22%

Dew point: 25 °F

Location of YazdLocation

Historic Weather in Yazd — Graph

°F

Yazd temperature yesterday

Maximum temperature yesterday: 68 °F (at 1:30 PM)
Minimum temperature yesterday: 45 °F (at 7:00 AM)
Average temperature yesterday: 56 °F

Past Weeks' High & Low Weather Summary

 TemperatureHumidityPressure
High75 °F (Jan 29, 3:30 PM)100% (Jan 18, 11:30 PM)30.39 "Hg (Jan 18, 11:30 PM)
Low28 °F (Jan 20, 7:00 AM)8% (Jan 29, 3:30 PM)29.95 "Hg (Jan 17, 3:30 PM)
Average49 °F43%30.16 "Hg
* Reported Jan 16 8:30 AM — Jan 31 9:00 AM, Yazd, Weather by CustomWeather, © 2014

Note: Actual official high and low records may vary slightly from our data, if they occured in-between our weather recording intervals... More about our weather records

Advertising

Yazd weather history for previous 24 hours

 ConditionsComfort  
Time TempWeatherWind HumidityBarometerVisibility
9:00 AM
Jan 31
64 °FScattered clouds.7 mph22%30.07 "HgN/A
8:30 AM63 °FPartly sunny.5 mph24%30.07 "HgN/A
8:00 AM63 °FScattered clouds.7 mph25%30.04 "HgN/A
7:30 AM63 °FScattered clouds.9 mph25%30.07 "HgN/A
6:30 AM61 °FPassing clouds.7 mph25%30.04 "Hg5 mi
5:30 AM54 °FClear.5 mph33%30.04 "Hg10 mi
4:30 AM45 °FClear.2 mph46%30.01 "Hg10 mi
3:30 AM46 °FClear.5 mph43%30.01 "Hg10 mi
2:30 AM50 °FClear.No wind37%30.01 "Hg10 mi
1:30 AM48 °FClear.2 mph40%30.01 "Hg10 mi
12:30 AM50 °FClear.2 mph37%30.04 "Hg10 mi
11:30 PM
Jan 30
50 °FClear.2 mph37%30.04 "Hg10 mi
10:30 PM50 °FClear.5 mph37%30.07 "Hg10 mi
10:00 PM50 °FClear.2 mph37%30.07 "Hg10 mi
9:30 PM52 °FClear.2 mph35%30.07 "Hg10 mi
9:00 PM52 °FClear.2 mph35%30.07 "Hg10 mi
8:30 PM52 °FClear.5 mph35%30.09 "Hg10 mi
8:00 PM55 °FClear.5 mph31%30.09 "Hg10 mi
7:30 PM59 °FClear.5 mph27%30.09 "Hg10 mi
7:00 PM59 °FClear.2 mph27%30.09 "Hg10 mi
6:30 PM61 °FClear.5 mph25%30.07 "Hg10 mi
6:00 PM61 °FPassing clouds.5 mph25%30.07 "Hg5 mi
5:30 PM63 °FPassing clouds.5 mph22%30.07 "Hg5 mi
5:00 PM64 °FScattered clouds.7 mph21%30.07 "Hg5 mi
4:30 PM64 °FScattered clouds.9 mph21%30.07 "Hg5 mi
4:00 PM66 °FScattered clouds.9 mph19%30.07 "Hg5 mi
3:30 PM68 °FScattered clouds.9 mph18%30.07 "Hg5 mi
3:00 PM66 °FPartly sunny.9 mph19%30.07 "HgN/A
2:30 PM68 °FScattered clouds.7 mph17%30.07 "HgN/A
1:30 PM68 °FScattered clouds.5 mph17%30.07 "HgN/A
12:30 PM64 °FSunny.5 mph19%30.09 "Hg10 mi
12:00 PM64 °FSunny.5 mph22%30.12 "Hg10 mi
11:30 AM63 °FSunny.2 mph24%30.12 "Hg10 mi
11:00 AM61 °FSunny.5 mph25%30.15 "Hg10 mi
10:30 AM57 °FSunny.7 mph29%30.15 "Hg10 mi
10:00 AM59 °FSunny.5 mph27%30.15 "Hg10 mi
Weather by CustomWeather, © 2014

See weather overviewHow to use our weather pages